Location: Lecco
(45.8566°N, 9.3977°E)
Time: 08:40:05
(UTC+02:00)

Altair - Pass Details

Date: 16 August 2020
Orbit: 1501 x 1682 km, 47.2° (Epoch: 25 September)

Event Time Altitude Azimuth Distance (km) Brightness Sun altitude
Rises 02:29:42 0° 229° (SW) 4,849 - -28.8°
Reaches altitude 10° 02:32:54 10° 227° (SW) 3,842 - -28.7°
Exits shadow 02:40:23 52° 195° (SSW) 1,902 7.5 -28.2°
Maximum altitude 02:42:27 62° 149° (SSE) 1,740 7.5 -28.1°
Drops below altitude 10° 02:51:39 10° 72° (ENE) 3,713 10.0 -27.5°
Sets 02:54:42 0° 69° (ENE) 4,679 10.7 -27.3°
